Location: Absher
(46.5583°N, 107.9840°W)
Time: 16:39:58
(UTC+00:00)

STRAND 1 - Pass Details

Date: 09 April 2023
Orbit: 767 x 779 km, 98.4° (Epoch: 04 June)

Event Time Altitude Azimuth Distance (km) Brightness Sun altitude
Rises 11:52:19 0° 130° (SE) 3,240 ? -8.1°
Reaches altitude 10° 11:54:57 10° 117° (ESE) 2,315 ? -7.7°
Maximum altitude 11:59:06 26° 63° (ENE) 1,493 ? -7.0°
Drops below altitude 10° 12:03:15 10° 8° (N) 2,322 ? -6.3°
Sets 12:05:53 0° 356° (N) 3,252 ? -5.9°
